Location: Smiley Heights
(34.0314°N, 117.1917°W)
Time: 02:31:13
(UTC+00:00)

Daily predictions for brighter satellites

Satellite Brightness Start Highest point End
(mag) Time Altitude Azimuth Time Altitude Azimuth Time Altitude Azimuth
Atlas Centaur 2 3.4 00:53:35 10° W 01:01:05 68° S 01:09:33 10° ESE
PSLV R/B 4.5 01:00:59 10° N 01:05:06 63° WNW 01:09:09 10° SSW
CZ-4 R/B 3.2 01:06:17 10° E 01:07:12 11° ENE 01:08:07 10° NE
SL-16 R/B 4.0 01:05:22 10° ESE 01:07:25 12° E 01:09:28 10° ENE
ATLAS 2AS CENTAUR R/B 4.5 01:01:45 10° WSW 01:08:39 32° NW 01:15:41 10° NNE
Cosmos 2333 Rocket 2.7 01:03:10 10° SSW 01:08:51 67° WNW 01:14:36 10° NNE
Envisat 3.8 01:05:32 10° SE 01:09:52 29° ENE 01:14:13 10° NNE
Cosmos 1536 4.3 01:08:04 10° NNE 01:10:45 17° ENE 01:13:24 10° ESE
Meteor 1-11 Rocket 4.3 01:07:01 10° N 01:12:35 39° ENE 01:18:06 10° SE
Meteor 1-27 Rocket 4.0 01:07:11 10° SSE 01:12:36 50° E 01:18:10 10° NNE
Okean O Rocket 3.3 01:08:38 10° SSW 01:12:40 38° W 01:16:44 10° NNW
STARLINK-60 4.1 01:11:50 10° SSW 01:14:51 31° SE 01:17:44 11° ENE
SKYMED 2 4.4 01:13:58 10° NE 01:17:48 30° E 01:21:37 10° SSE
Cosmos 2242 Rocket 4.3 01:13:49 10° SSE 01:17:52 33° E 01:21:59 10° NNE
Cosmos 2237 Rocket 2.4 01:14:42 10° S 01:20:11 52° ESE 01:25:42 10° NNE
H-2A R/B 2.6 01:16:35 10° SSE 01:20:16 69° ENE 01:23:58 10° N
Lacrosse 5 rocket 2.1 01:16:12 10° SW 01:20:29 53° NW 01:24:34 10° NNE
OAO 2 Rocket 3.5 01:16:40 10° WSW 01:21:38 67° SSE 01:26:22 12° E
Cosmos 1500 3.7 01:18:56 10° NNE 01:22:26 37° E 01:25:55 10° SSE
Okean-O 2.9 01:19:52 10° SE 01:24:03 43° ENE 01:28:14 10° N
Cosmos 1862 Rocket 3.5 01:19:51 10° S 01:24:08 68° E 01:28:28 10° NNE
Cosmos 371 Rocket 4.5 01:19:47 10° NNW 01:24:29 48° WSW 01:29:09 10° S
Cosmos 1340 3.9 01:21:38 10° NNW 01:25:15 45° W 01:28:51 10° SSW
Feng Yun 1-1 Rocket 4.2 01:20:31 10° SSE 01:25:57 87° ENE 01:31:21 10° NNW
OAO 3 Rocket 3.5 01:24:28 10° WSW 01:29:05 57° SSE 01:33:04 14° E
Shenzhou-11 Module 4.0 01:28:55 10° NW 01:30:38 15° N 01:32:04 11° NNE
AQUARIUS 4.2 01:26:13 10° SSE 01:30:42 89° WSW 01:35:13 10° NNW
SL-4 R/B 4.2 01:29:17 10° WNW 01:31:35 15° NNW 01:33:57 10° NNE
Cosmos 1844 4.3 01:29:33 10° NNW 01:35:08 60° WSW 01:40:36 10° S
YAOGAN 6 3.4 01:32:44 10° SE 01:35:46 28° ENE 01:38:49 10° NNE
Cosmos 2219 Rocket 3.6 01:33:26 10° SW 01:38:34 37° WNW 01:43:45 10° N
CORIOLIS 4.3 01:36:14 10° S 01:41:40 81° WSW 01:47:08 10° NNW
NOAA 12 4.0 01:37:39 10° SSE 01:42:57 78° ENE 01:48:15 10° N
FALCON 9 DEB 3.5 01:40:16 10° SSW 01:43:38 47° SE 01:45:19 25° ENE
Cosmos 1092 Rocket 4.0 01:40:39 10° S 01:46:51 61° E 01:53:02 10° NNE
Cosmos 1980 3.8 01:44:39 10° SSW 01:50:16 78° WNW 01:55:57 10° NNE
CENTAUR R/B 3.9 01:42:15 10° NW 01:50:27 59° WSW 01:58:55 10° S
Cosmos 1263 4.2 01:47:30 10° S 01:50:58 70° E 01:53:24 15° NNE
NOSS 0 Rocket 4.4 01:47:27 10° SSW 01:53:35 63° WNW 01:59:46 10° NNE
Aureole 1 Rocket 2.2 01:50:56 10° S 01:53:56 50° ESE 01:54:45 37° NE
SL-8 R/B 3.6 01:50:55 10° NW 01:55:45 76° NE 01:59:43 15° ESE
STARLINK-52 3.3 01:56:33 10° SSW 01:59:58 53° SE 02:00:50 40° E
CSL-04 Rocket 3.9 01:58:26 10° SE 02:03:24 43° ENE 02:08:22 10° N
Cosmos 1908 Rocket 3.5 02:01:02 10° N 02:05:22 56° E 02:09:38 10° SSE
COSMO-SKYMED 1 2.8 02:01:31 10° N 02:05:50 69° WNW 02:10:07 10° SSW
Cosmos 1666 2.6 02:03:39 10° N 02:07:18 53° E 02:10:57 10° SSE
STARLINK-29 3.0 02:04:39 10° SW 02:08:10 80° SE 02:08:53 53° ENE
YAOGAN 1 2.7 02:05:21 10° SSE 02:09:30 49° ENE 02:13:41 10° N
ERBS 2.5 02:09:23 10° NW 02:12:42 69° SW 02:14:23 26° SSE
FengYun 1-2 T 4.1 02:08:34 10° SSE 02:14:02 90° ESE 02:19:33 10° NNW
CSL-04 Debris 4.2 02:09:24 10° SSE 02:14:45 58° ENE 02:20:06 10° N
USA 267 4.2 02:09:00 10° SSE 02:15:16 49° SW 02:21:35 10° NW
OAO 1 Rocket 4.4 02:18:17 10° W 02:23:36 79° SSW 02:25:25 42° ESE
ADEOS Rocket 4.4 02:27:51 17° SE 02:27:51 17° SE 02:29:25 10° SSE
ATLAS 3B R/B 4.3 02:23:07 10° NW 02:29:10 35° WSW 02:35:23 10° S
Okean 1-7 3.2 02:26:23 10° SSW 02:30:39 72° W 02:32:56 27° N
NOAA 11 4.1 02:28:06 10° SSE 02:33:27 65° ENE 02:38:53 10° N
Cosmos 1428 Rocket 4.4 02:28:55 10° S 02:35:03 88° W 02:41:17 10° N
Meteor 1-19 Rocket 4.2 02:33:05 10° S 02:38:08 54° ESE 02:38:08 54° ESE
Cosmos 1553 Rocket 4.4 02:32:44 10° N 02:40:52 38° SE 02:45:05 10° SSE
CZ-4 R/B 2.4 02:38:00 10° S 02:41:48 44° W 02:45:33 10° NNW
Cosmos 2278 Rocket 2.8 02:38:05 10° NNW 02:43:37 56° WSW 02:49:06 10° S
Cosmos 292 Rocket 4.3 02:43:32 10° NNW 02:47:04 49° NNW 02:47:04 49° NNW
Atlas Centaur 2 3.7 02:42:56 10° W 02:50:45 49° SSW 02:55:05 28° SE
SL-16 R/B 2.3 02:45:08 10° SSW 02:50:46 72° WNW 02:52:29 46° N
Cosmos 614 Rocket 4.4 02:53:55 10° SSW 02:58:56 57° WNW 02:59:46 50° NNW
Cosmos 407 Rocket 3.9 02:55:39 10° SSW 03:00:42 58° WNW 03:01:28 52° NW
Cosmos 2237 Rocket 4.5 03:00:29 10° WSW 03:04:31 20° WNW 03:08:35 10° NNW
Cosmos 1655 Rocket 3.9 02:58:39 10° S 03:05:00 86° E 03:05:06 86° ENE
OAO 2 Rocket 3.9 03:01:22 10° W 03:05:19 54° WNW 03:05:19 54° WNW
Cosmos 1140 Rocket 4.0 03:02:40 10° SSW 03:06:33 52° SW 03:06:33 52° SW
CZ-3B R/B 4.2 03:02:41 10° SSW 03:08:40 24° SSE 03:08:40 24° SSE
OAO 3 Rocket 4.4 03:07:47 10° W 03:10:52 40° W 03:10:52 40° W
SL-16 R/B 3.9 11:47:40 26° NE 11:48:50 28° ENE 11:53:39 10° ESE
